Theta_e
316 315 315 314 313 313 315 316 317 317 318 319 319 320 320 320 320 318 317 317 316 317 316 316 317 316 315 315 313 312 312 313 321 324 326 331 329 324 324 322 322 323 323 322 323 325 329 331 330 333 333 332 333 333 335 335 336 337 337 335 329 334 340 345 351 348 349 353 355 354 354 355 357 356 355 356 356 357 357 358 356 355 356 355 356 355 352 351
316 315 315 315 314 312 313 314 315 316 316 317 319 319 319 320 320 319 318 317 317 316 317 317 316 316 316 314 312 312 312 317 326 326 325 330 328 325 325 324 323 324 322 321 325 329 330 330 330 331 332 333 333 333 335 335 334 334 338 336 332 339 342 345 350 349 352 353 353 353 351 352 354 357 355 358 360 360 362 362 359 358 356 353 355 354 352 351
315 315 315 315 314 313 311 312 314 315 315 316 317 318 318 318 319 319 319 318 317 316 316 317 316 317 315 313 312 310 316 326 331 329 327 327 325 324 323 322 323 322 321 321 325 329 330 331 331 330 333 333 331 333 335 334 333 333 338 338 337 343 343 346 350 352 352 350 353 352 351 350 353 354 352 355 359 362 365 363 363 361 357 353 352 352 350 350
315 314 315 315 315 313 311 311 313 314 314 315 315 316 317 317 318 318 318 318 317 316 316 316 316 317 314 313 311 311 323 335 335 333 328 324 324 322 321 321 322 322 320 322 325 328 330 330 331 331 332 333 331 333 335 335 335 333 336 339 340 342 343 346 347 349 351 349 352 352 352 352 354 353 348 353 356 358 363 362 362 361 358 354 351 351 351 350
315 314 315 315 314 313 311 310 313 314 314 314 313 314 315 316 317 317 318 318 317 316 316 316 316 316 314 313 310 315 329 336 335 336 328 323 323 320 320 322 322 321 321 324 328 329 330 330 331 332 333 333 332 332 335 335 335 334 335 337 339 339 341 342 343 350 353 351 351 349 351 353 355 355 347 350 352 354 359 358 358 358 356 353 351 351 350 350
315 315 314 314 314 312 311 310 313 314 315 314 312 313 314 315 316 317 318 318 317 315 315 316 316 315 314 311 313 323 331 332 335 336 328 324 321 319 320 321 323 320 320 324 329 330 330 332 332 332 332 332 332 331 333 333 334 335 335 336 336 338 340 339 345 354 352 350 350 349 351 349 352 353 348 347 348 349 352 353 352 354 355 352 352 350 349 350
314 315 314 314 314 312 311 311 312 314 314 313 312 312 312 314 315 316 317 317 317 315 316 316 315 315 312 312 322 330 332 332 336 335 331 326 320 320 319 320 322 320 322 326 329 331 330 332 332 332 333 331 331 331 331 332 332 334 334 335 336 336 339 340 346 352 351 351 352 353 350 347 349 349 346 347 346 346 349 351 351 353 354 352 349 349 349 350
314 314 314 314 314 313 311 311 312 315 314 313 312 311 312 313 314 316 317 317 316 315 316 316 316 314 311 317 329 333 333 335 337 334 331 327 322 321 319 321 323 324 327 329 330 331 330 331 331 331 333 331 330 330 331 332 331 332 333 336 336 336 337 338 344 349 353 355 354 353 352 348 347 346 346 348 345 345 349 349 350 353 352 351 349 350 351 349
314 314 314 314 313 313 312 310 312 314 314 312 311 311 312 312 313 315 316 317 315 315 316 316 315 312 314 325 334 333 335 337 335 333 329 328 326 322 320 325 328 329 330 330 331 331 331 330 330 332 332 331 329 330 331 331 330 331 333 336 336 336 336 336 343 348 352 354 352 354 358 352 346 347 347 346 345 345 347 348 350 353 352 353 352 350 350 348
314 314 314 314 313 311 311 310 312 314 314 311 311 311 311 311 313 315 316 316 315 315 315 315 315 311 319 332 335 334 337 334 333 332 330 330 329 324 325 329 331 332 331 331 332 331 331 330 331 332 331 331 330 329 330 330 330 331 332 335 335 336 336 334 339 345 346 351 352 354 357 351 347 353 350 345 348 346 346 348 349 353 353 353 352 351 352 349
315 314 313 313 313 311 310 310 311 313 313 311 311 312 311 312 313 315 316 316 315 315 315 315 313 313 325 333 331 334 335 334 334 331 331 332 330 328 328 331 331 331 330 331 332 331 331 331 332 332 332 332 331 331 330 330 330 331 331 335 336 334 336 337 340 343 346 354 355 354 354 349 349 355 353 346 348 347 347 349 349 350 353 353 351 350 354 352
314 314 313 312 311 309 308 308 309 311 311 311 312 312 311 311 313 315 316 315 315 315 315 315 312 316 330 335 332 335 332 334 333 329 329 330 329 329 329 331 331 330 330 331 331 332 332 331 332 332 332 331 331 332 330 330 331 331 331 334 337 335 339 341 342 344 345 352 356 356 348 347 354 351 346 345 346 346 347 349 350 348 351 353 351 351 354 354
314 315 313 310 308 307 307 308 308 310 311 312 313 312 312 312 313 315 315 314 315 315 315 314 312 320 332 336 332 333 330 334 333 329 328 327 328 328 329 330 330 330 330 330 330 332 332 333 332 331 333 331 331 331 329 331 330 331 331 332 334 332 338 343 342 344 347 349 355 353 333 333 353 348 339 344 344 344 346 347 347 345 349 353 353 352 352 354
314 315 313 310 308 307 307 308 308 309 311 312 312 312 312 312 313 314 314 314 315 315 315 313 312 322 333 334 330 330 329 333 331 330 328 326 328 328 329 330 330 331 330 331 331 333 333 333 333 332 332 332 332 329 330 331 330 332 330 329 330 323 329 344 340 340 348 350 351 346 326 327 346 344 338 345 344 343 345 346 344 346 349 349 351 353 351 356
314 314 312 310 309 308 308 308 309 310 311 312 313 313 312 312 313 313 314 314 316 316 315 316 319 327 336 333 331 329 328 330 330 330 329 328 328 329 331 330 330 331 330 332 332 333 333 333 332 332 332 332 332 330 330 331 330 333 323 319 325 320 325 342 338 336 346 350 348 339 326 329 341 340 340 347 346 343 344 345 344 346 349 346 347 348 351 356
314 313 312 310 309 308 308 308 310 311 311 312 313 312 311 312 313 313 315 315 315 314 315 324 332 332 333 331 331 329 326 329 329 330 329 329 329 330 331 330 331 331 332 333 333 333 333 333 332 331 332 330 330 330 329 325 324 331 323 313 318 318 322 333 336 338 341 345 345 338 331 332 338 338 341 344 343 344 343 343 345 346 346 347 345 344 352 355
313 313 312 311 310 309 309 309 310 311 312 313 313 312 311 312 313 314 315 315 314 316 319 327 334 332 331 331 330 330 328 328 330 331 330 329 330 331 331 330 331 332 333 333 333 334 332 332 332 331 332 330 331 331 322 314 313 322 323 317 318 320 320 323 332 338 341 341 340 340 338 335 336 338 342 339 338 345 344 341 346 348 345 347 346 346 356 356
313 313 312 311 311 310 310 310 310 312 313 313 312 311 311 313 314 316 319 320 321 324 326 329 329 326 326 327 328 330 329 330 331 331 330 330 332 331 330 330 332 332 333 332 332 333 331 331 332 332 332 330 332 329 316 312 314 315 317 316 317 320 320 321 327 334 339 339 334 335 336 335 337 340 343 339 337 344 344 342 344 346 343 344 347 351 359 357
313 314 314 313 313 312 311 310 311 314 313 311 311 311 314 316 317 319 323 329 329 328 329 330 327 324 325 327 329 330 330 330 331 330 330 331 332 332 330 330 332 332 331 331 331 331 330 331 331 327 328 329 331 329 321 322 324 320 320 318 315 316 319 325 329 329 331 331 330 332 332 333 336 342 345 343 340 343 345 344 343 345 345 346 349 352 356 355
315 316 317 316 315 313 312 312 313 314 311 312 317 319 321 323 323 324 325 328 330 328 326 326 324 325 328 329 329 330 329 329 329 330 331 330 332 332 332 331 331 331 331 331 331 331 331 329 328 326 328 330 330 329 328 328 327 326 324 321 319 317 318 327 332 333 333 327 327 333 334 331 333 341 348 346 342 341 343 345 345 345 344 346 351 351 350 350
316 317 319 318 316 314 313 314 315 313 310 316 323 327 327 325 323 324 323 323 327 328 326 324 322 324 328 329 329 328 327 327 327 329 330 330 332 332 331 331 330 329 330 331 332 332 331 326 326 329 330 331 329 329 329 327 327 326 323 320 319 318 320 329 332 332 334 326 325 332 333 329 336 344 347 346 344 341 342 345 348 346 344 347 351 350 350 350
317 318 319 318 317 315 315 315 314 312 312 319 324 329 332 329 324 324 322 320 323 324 325 323 322 324 327 329 329 328 326 325 325 328 330 329 330 331 332 330 330 331 330 330 331 331 329 326 327 330 330 330 329 329 327 327 326 325 324 319 315 320 323 327 332 334 333 326 324 332 329 328 340 346 345 343 343 346 348 348 347 346 348 349 348 346 348 351
318 319 318 318 318 316 315 315 314 312 314 320 326 328 333 330 326 328 325 324 323 321 322 322 322 324 327 328 328 328 327 325 325 328 330 330 329 329 330 330 329 331 330 330 330 325 321 325 331 330 329 329 328 327 327 325 325 325 323 317 313 321 320 318 326 334 335 328 326 333 328 329 342 347 347 344 346 354 354 351 349 349 351 349 345 344 344 348
318 318 318 318 317 316 316 314 313 311 313 321 324 324 328 327 327 328 327 329 325 320 322 321 323 324 325 328 326 327 326 326 326 328 329 329 329 328 329 330 328 329 330 330 331 327 324 327 332 330 329 329 326 327 327 322 321 324 325 320 317 322 321 319 325 329 332 330 332 331 320 324 338 341 345 346 350 356 353 354 356 354 355 350 345 345 344 348
318 318 318 317 317 316 314 312 313 313 314 320 322 321 324 326 329 328 330 332 323 319 323 322 324 325 327 329 325 325 328 326 326 329 330 329 329 329 329 330 328 328 329 329 331 329 329 329 329 329 329 329 326 325 326 322 317 318 324 326 324 326 325 324 326 323 318 317 330 328 311 316 333 333 339 344 346 353 355 358 360 367 368 354 346 346 347 355
318 317 318 317 317 314 313 316 318 318 320 322 322 323 324 326 329 328 332 329 318 318 324 323 324 326 328 327 325 327 327 327 328 329 330 328 328 329 328 329 328 327 328 330 329 327 328 330 329 328 327 326 326 323 325 325 316 312 322 327 328 329 325 324 323 318 310 311 328 329 312 313 324 327 336 340 340 351 355 356 359 373 373 353 346 348 354 365
318 318 318 318 315 313 318 326 323 320 323 325 325 327 326 328 331 329 329 321 314 319 325 323 324 326 327 326 326 327 323 325 329 329 327 327 327 328 327 328 328 326 329 328 321 322 328 329 326 327 326 324 323 321 325 328 317 314 323 328 327 327 325 324 322 316 314 316 322 327 319 312 313 324 337 338 339 347 351 351 353 360 358 348 346 349 355 366
317 317 318 316 313 317 324 328 327 327 327 328 327 329 328 329 329 327 325 315 315 322 327 324 325 326 327 326 326 327 325 326 327 326 328 327 326 328 325 327 327 326 329 324 315 320 328 326 326 327 324 323 322 323 328 328 322 321 327 328 325 326 325 325 321 316 317 316 311 317 320 312 311 324 338 339 335 342 348 346 346 348 347 346 345 344 348 358
317 317 317 314 313 319 322 320 323 331 330 330 329 328 329 329 327 326 323 316 318 324 327 325 326 326 326 326 325 327 327 327 326 325 327 327 327 327 325 326 327 325 327 325 320 323 328 326 327 327 324 323 324 327 328 326 325 325 327 327 326 326 326 325 322 316 315 313 308 312 315 311 312 319 326 332 332 339 347 343 342 345 346 345 343 341 344 352
317 316 315 313 314 318 319 319 325 330 331 332 330 330 329 328 324 320 317 320 321 324 326 325 326 326 325 325 325 328 328 327 327 326 326 325 325 326 325 326 327 325 327 327 325 326 327 327 327 327 326 326 326 327 327 326 327 326 326 326 324 325 326 324 323 317 312 310 309 312 314 312 313 317 322 328 332 340 345 341 341 345 345 345 344 342 342 346
316 316 314 312 318 324 325 327 330 331 333 331 330 331 329 328 325 316 316 324 321 324 325 324 326 326 324 324 325 327 328 327 327 327 325 325 325 325 324 324 324 323 322 322 323 325 326 325 326 327 326 326 325 326 326 328 327 326 327 323 317 317 319 316 315 315 312 309 311 314 316 316 316 323 330 334 339 341 342 340 343 345 345 347 345 341 342 344
315 314 312 311 321 328 328 332 335 333 332 330 330 332 328 324 321 316 319 321 318 321 324 324 325 325 324 324 325 325 327 327 327 327 325 323 325 324 322 323 323 316 311 313 318 321 323 326 327 327 327 327 325 323 325 328 328 328 325 317 311 310 311 311 309 311 310 310 314 317 317 319 320 327 334 339 342 342 341 340 342 345 345 345 344 341 342 345
313 312 311 311 319 326 327 332 333 331 331 330 330 333 329 321 317 317 319 318 318 321 326 326 325 325 324 323 325 325 326 327 326 326 325 325 326 324 323 325 326 319 313 314 314 313 316 323 327 326 326 327 327 322 318 320 325 325 320 313 309 308 309 310 309 310 311 310 314 317 316 317 320 327 336 339 339 340 341 341 343 345 344 343 343 341 342 345
312 312 311 312 315 321 327 329 328 328 330 330 330 331 328 320 320 319 319 321 323 324 326 326 325 325 324 324 325 325 324 325 326 325 325 325 323 322 324 325 326 326 322 317 314 312 310 314 322 326 325 327 329 325 322 323 324 325 326 320 312 309 309 309 309 309 310 309 312 316 316 315 317 328 337 336 335 339 340 340 342 343 344 345 345 344 344 345
311 311 312 314 317 321 327 327 326 328 329 329 331 330 323 318 319 317 319 324 325 326 326 325 326 323 322 325 327 325 325 324 325 326 325 325 323 322 325 326 326 328 323 316 314 316 310 311 324 328 327 329 328 328 329 326 321 324 329 322 313 314 314 309 309 310 309 310 310 311 315 320 326 333 338 335 335 338 339 340 343 343 345 347 347 347 345 345
315 315 315 320 324 326 329 328 327 328 329 331 330 326 325 324 322 320 323 325 324 326 325 322 324 319 315 322 325 326 327 325 326 325 324 326 326 325 327 327 328 327 324 319 317 317 310 312 328 329 327 331 328 329 330 324 320 322 320 316 317 326 321 310 308 311 310 310 311 312 315 321 329 334 337 337 337 338 340 342 343 345 345 346 348 349 347 346
323 323 323 327 328 330 332 330 330 329 329 332 330 327 332 334 331 326 325 325 325 327 324 316 318 318 313 315 321 325 327 325 325 323 320 322 324 326 329 328 328 328 327 324 321 322 316 313 326 330 326 330 330 329 329 327 326 320 315 317 324 327 323 315 310 310 311 311 313 315 316 317 322 329 336 336 338 339 341 343 344 347 347 346 348 349 349 347
331 330 329 331 329 329 332 330 330 331 329 333 334 335 338 335 332 330 326 325 325 326 323 316 317 321 317 314 317 325 325 320 321 321 318 320 320 324 329 328 328 328 328 326 323 326 322 312 319 332 329 328 333 329 325 327 329 325 321 325 325 315 313 315 311 311 313 312 313 318 325 328 326 330 338 340 342 343 343 345 346 348 348 346 348 349 347 347
333 333 331 333 330 329 331 331 330 331 330 332 335 337 335 331 331 331 328 327 325 324 323 321 321 321 321 319 319 325 325 319 320 321 317 319 320 325 329 328 328 329 327 328 326 327 328 315 313 328 331 328 331 325 318 322 328 328 328 329 327 318 314 316 315 314 313 312 314 319 328 336 338 340 347 348 348 347 348 352 352 351 351 349 352 353 349 349
331 335 334 332 331 331 332 331 330 330 331 333 335 334 330 328 328 329 328 327 326 325 325 327 325 322 323 325 324 325 325 323 324 321 319 322 323 325 330 328 328 330 328 328 327 326 329 320 312 323 329 327 329 327 322 323 325 325 322 320 322 321 320 321 318 316 312 313 317 317 323 334 343 348 354 353 351 350 353 358 357 356 357 354 356 357 355 354
329 333 336 331 331 332 330 329 330 331 333 335 336 333 329 328 327 327 328 328 327 327 327 329 327 325 325 325 325 326 326 326 325 324 323 324 322 323 329 329 328 330 328 328 328 326 326 324 316 317 320 319 325 332 329 329 329 327 322 320 320 320 318 316 316 317 314 314 316 314 321 337 349 351 355 355 353 353 354 357 357 357 358 356 357 359 357 356
330 333 335 332 330 330 329 330 332 333 334 335 333 330 329 330 328 326 328 328 328 328 329 328 327 327 327 327 326 328 327 324 324 325 324 325 326 326 329 330 328 329 329 327 329 329 329 327 318 315 320 324 330 335 332 330 332 330 326 326 327 324 318 312 312 316 313 314 316 311 321 342 355 352 355 355 353 354 352 353 355 354 356 356 357 358 356 354
332 334 331 330 330 328 330 333 334 334 334 332 330 329 329 330 328 328 328 328 329 328 327 329 329 328 328 328 329 329 326 324 325 326 326 327 329 329 329 330 328 329 329 329 331 331 331 327 319 315 322 328 331 333 333 332 331 330 330 331 329 327 325 320 320 320 314 314 315 313 323 343 353 352 354 352 351 352 349 349 350 350 354 354 355 357 354 350
334 334 328 329 329 327 331 335 334 333 331 330 329 328 329 330 328 329 329 329 330 329 329 330 330 329 329 329 330 330 326 323 325 327 329 329 329 330 329 328 328 329 329 333 336 330 326 328 322 315 320 328 329 326 328 333 331 328 331 334 332 330 331 328 326 323 318 314 314 315 325 341 351 352 353 350 349 348 346 345 346 348 351 351 352 355 352 349
336 335 328 330 329 327 332 335 334 332 329 330 331 329 329 330 329 329 330 330 330 330 330 330 330 330 330 329 330 331 329 326 326 329 329 328 330 330 328 329 330 328 332 343 348 334 327 329 325 317 319 326 324 318 322 332 333 329 331 333 332 331 330 326 321 318 317 317 318 319 326 340 352 353 350 348 347 346 346 344 343 345 347 348 350 351 351 350
335 334 329 330 330 329 332 333 334 333 329 330 331 329 330 329 329 330 329 330 330 330 331 330 330 331 331 331 331 332 332 328 328 330 329 329 331 329 329 330 327 330 344 352 347 334 330 331 328 322 320 322 321 320 329 335 326 322 326 328 330 331 331 327 319 316 318 318 319 327 333 337 345 350 349 347 347 346 347 345 343 344 345 346 348 348 349 350
335 335 330 332 332 331 333 333 332 331 329 331 330 329 330 329 329 330 328 330 329 330 330 329 330 331 329 332 332 330 332 332 331 332 330 331 332 329 331 329 326 345 363 353 334 332 331 324 327 329 324 324 328 329 334 332 324 323 324 325 329 330 330 326 318 320 324 317 318 336 342 332 336 345 345 344 345 345 345 345 344 345 345 345 345 345 346 346
336 335 330 333 332 331 332 331 331 330 329 331 330 329 329 329 329 330 329 330 329 329 330 329 330 331 330 331 331 329 332 332 331 333 332 332 332 331 332 329 328 344 353 337 327 334 329 321 326 329 324 328 333 331 332 332 329 329 327 326 328 328 327 324 321 326 329 317 318 335 340 331 336 344 343 342 343 343 343 343 342 342 343 343 341 342 342 340
336 335 332 332 332 331 332 331 331 331 330 332 331 330 330 330 330 330 329 330 330 329 330 330 330 330 330 331 330 330 332 329 327 333 335 333 334 332 331 331 330 334 335 329 331 335 328 324 330 329 323 327 331 331 333 331 327 327 328 328 330 329 327 326 327 331 331 323 325 333 335 336 341 342 343 343 341 341 342 341 341 342 342 342 341 340 338 336
337 337 335 333 332 332 331 331 331 331 331 332 332 330 331 330 330 330 329 330 332 330 329 330 331 330 329 330 330 332 333 330 329 333 334 332 333 332 331 331 331 331 331 330 332 333 328 325 331 331 321 321 327 331 331 330 326 323 325 329 331 329 326 326 328 331 330 329 332 330 330 337 343 343 344 343 341 343 344 343 343 342 341 340 338 336 335 334
337 336 334 334 333 332 332 331 331 331 331 331 332 331 331 331 332 331 330 329 330 330 330 330 330 329 329 330 331 330 330 329 329 329 329 330 330 331 331 331 330 331 331 331 331 332 330 327 330 329 317 315 324 327 325 327 325 319 319 326 328 325 325 326 329 332 331 330 331 332 333 341 347 344 344 344 343 344 345 345 345 342 339 338 336 335 336 336
338 338 336 335 334 332 332 331 331 332 331 331 332 331 331 332 331 330 330 330 330 329 329 329 329 328 329 331 331 330 328 328 327 326 326 326 326 327 328 329 329 329 329 330 330 330 330 328 325 322 315 314 321 324 323 323 318 314 320 328 330 329 330 330 332 337 339 337 336 337 340 347 348 345 346 347 346 345 345 344 342 341 341 339 337 337 337 336
Wind_Speed
7 7 7 7 7 7 7 8 8 8 8 8 6 6 7 7 8 9 10 11 11 12 13 14 14 15 16 16 17 17 19 18 16 13 12 13 11 10 13 11 12 15 17 18 19 19 17 15 10 11 14 9 6 3 4 6 4 1 2 7 6 7 7 7 9 7 7 7 7 5 5 6 9 10 7 4 5 7 7 6 7 8 7 9 11 13 14 14
7 7 7 7 7 8 8 8 8 9 8 8 7 6 8 8 8 9 10 11 12 12 13 14 14 16 16 16 16 17 19 17 15 15 15 13 11 13 14 13 14 15 15 16 16 17 14 13 12 9 11 5 1 3 3 5 6 4 5 5 5 7 7 7 8 7 6 6 6 5 6 8 9 7 6 5 6 6 6 6 7 8 8 11 13 14 15 15
8 8 8 8 8 8 8 8 9 9 9 8 8 7 8 8 8 9 10 11 12 12 13 14 15 16 15 15 15 16 16 15 13 11 12 14 14 15 14 12 11 12 14 14 15 17 15 15 15 14 12 2 2 4 2 4 5 5 5 4 6 7 8 8 7 6 6 7 6 6 7 8 7 4 4 4 6 7 7 6 7 9 10 12 14 15 15 15
8 8 8 8 8 8 9 9 9 9 9 8 8 7 7 8 9 10 11 11 12 13 14 14 15 16 15 15 14 15 13 11 7 3 8 10 12 11 11 9 9 11 12 14 17 18 19 19 17 14 11 4 1 3 4 6 4 5 5 4 7 8 9 9 7 7 8 7 6 6 5 8 7 3 3 2 3 5 6 7 8 9 11 13 14 15 15 15
9 8 8 8 8 8 9 9 9 9 9 8 8 7 7 8 8 10 11 11 12 13 14 15 16 16 15 15 13 12 9 5 3 9 8 7 7 8 8 6 8 10 10 14 17 19 21 18 16 13 10 4 2 2 7 5 2 4 7 6 6 9 8 9 9 6 5 5 6 7 6 8 7 4 2 2 2 5 6 10 10 9 11 12 13 13 14 14
9 9 8 8 8 9 9 10 10 10 9 9 8 7 7 8 9 10 11 11 12 12 14 15 16 16 16 15 13 7 6 3 5 6 4 4 5 7 7 5 7 9 10 14 16 19 18 15 13 7 4 4 3 4 6 4 4 4 6 5 6 9 9 9 8 1 3 7 8 7 6 8 4 2 4 4 4 9 8 10 9 9 10 11 13 12 13 13
10 9 9 9 9 9 9 10 10 10 9 9 8 7 7 8 9 9 10 11 11 12 13 15 15 17 18 15 8 4 9 5 5 4 1 3 5 5 5 6 7 8 9 13 16 14 10 12 11 6 5 4 1 4 4 8 6 8 6 4 5 7 9 9 8 2 6 9 6 4 4 7 5 4 4 2 4 11 10 10 8 8 9 10 11 10 11 11
10 10 9 9 9 9 10 10 10 9 9 9 8 7 7 8 9 9 10 10 11 12 12 14 15 16 18 14 6 6 9 1 8 4 3 5 4 4 5 5 6 7 10 13 13 11 9 10 10 6 8 5 2 2 3 8 4 9 4 3 2 6 9 7 7 7 7 6 3 3 5 5 6 7 4 1 7 11 10 9 7 7 7 7 7 8 9 9
11 10 9 9 10 9 10 10 10 9 9 8 7 7 7 8 9 8 9 9 10 11 12 14 14 14 14 10 7 6 1 7 8 4 3 5 4 4 5 6 7 7 11 11 11 10 8 9 9 8 11 7 4 3 2 5 5 6 3 3 4 7 7 4 4 8 6 5 2 2 5 3 4 5 5 5 10 9 12 10 8 6 5 5 3 6 6 8
11 10 10 9 10 10 10 10 10 9 8 8 7 7 7 8 9 8 8 9 9 10 11 13 13 14 12 8 9 5 3 6 4 6 4 5 5 5 6 8 6 7 11 10 9 8 7 8 8 9 11 7 3 1 4 6 4 2 3 3 4 5 5 5 4 7 6 5 4 2 4 2 3 2 2 10 12 5 10 12 11 6 5 5 2 5 4 6
11 10 10 10 10 10 11 11 10 9 8 8 6 6 7 8 8 7 8 9 9 9 10 12 12 13 11 9 8 3 4 2 2 5 4 6 6 6 8 8 6 8 10 9 8 4 6 9 9 8 8 6 5 2 2 5 3 2 3 4 4 4 4 4 3 6 4 5 7 1 1 2 2 3 3 12 11 2 7 13 11 4 7 8 4 3 4 5
11 10 10 10 11 11 11 11 10 9 8 7 6 6 7 8 8 7 8 8 8 8 9 11 11 11 10 9 8 3 4 2 1 2 5 6 7 7 7 6 6 8 9 11 9 6 6 10 10 10 8 7 10 7 3 2 7 2 3 7 4 3 4 4 2 7 2 3 10 6 1 2 4 4 3 10 14 4 6 11 8 3 7 8 4 2 5 4
11 11 10 11 12 12 11 11 11 9 8 7 6 7 8 8 7 7 8 8 8 8 9 10 9 9 8 7 4 2 2 2 1 2 5 7 8 8 7 7 6 8 9 11 12 9 7 10 11 12 10 8 8 7 2 4 8 4 7 7 2 6 5 4 3 7 3 3 8 6 2 3 5 5 3 6 13 7 6 7 5 2 6 7 5 3 4 2
11 11 11 11 12 12 11 11 11 9 8 7 6 7 7 7 7 8 8 8 7 7 8 10 10 6 5 7 2 2 4 4 2 5 7 8 8 8 8 8 7 8 8 9 11 10 9 10 12 11 9 10 6 5 7 8 6 7 8 6 5 5 5 7 5 7 4 4 5 6 4 3 4 6 3 5 13 11 6 5 4 2 4 4 4 6 6 4
11 11 11 12 12 11 11 11 10 8 7 6 6 6 6 6 7 7 7 7 7 7 9 11 8 4 6 8 3 2 6 6 6 8 8 9 9 8 9 9 8 8 9 9 10 10 10 10 10 9 8 8 6 8 9 6 6 6 4 4 3 3 5 8 5 4 3 3 6 6 5 2 3 7 6 4 11 15 9 5 5 3 4 2 2 5 8 9
11 11 12 12 12 11 11 10 9 8 7 6 5 5 6 6 6 6 6 7 6 7 8 7 6 8 6 4 3 3 7 9 10 10 8 9 10 10 10 9 8 9 9 10 9 9 9 9 8 8 8 6 6 8 6 4 4 3 3 5 3 2 4 7 5 4 3 3 6 4 6 2 2 6 9 6 7 15 9 3 6 4 3 4 4 2 8 13
11 11 12 11 11 10 10 9 8 7 5 4 4 4 5 5 5 5 5 5 6 7 8 8 7 7 7 4 2 6 9 7 7 9 8 9 9 8 10 9 8 9 9 10 10 9 8 7 7 7 7 7 6 6 4 3 4 2 1 5 6 6 1 5 6 6 7 5 3 5 6 5 4 5 12 6 2 15 11 3 9 8 3 5 4 3 8 10
11 10 10 10 10 9 8 8 7 5 4 4 4 4 4 4 4 5 4 4 4 5 9 11 9 6 6 9 8 8 9 7 7 8 8 9 7 4 6 8 7 8 9 9 9 9 7 6 7 8 6 7 6 5 4 3 5 7 6 6 5 6 7 3 8 5 6 4 3 6 5 5 3 10 13 4 5 13 13 5 8 10 6 6 4 5 7 6
10 10 9 9 8 8 7 7 6 5 5 6 5 4 3 3 4 5 7 6 3 3 5 6 8 3 1 5 4 4 6 6 6 7 8 10 7 5 7 9 8 8 8 7 7 9 7 5 7 7 6 6 5 6 7 9 9 11 9 6 6 7 6 5 9 7 5 1 4 5 4 7 4 11 12 6 6 9 13 8 6 7 4 5 5 4 4 4
10 9 9 8 8 7 7 8 7 7 9 9 5 2 3 4 4 4 7 9 9 9 7 7 15 8 1 6 5 7 6 4 6 8 10 10 9 8 9 9 8 7 8 8 7 7 5 7 6 5 8 7 8 10 11 10 9 10 8 8 10 9 1 10 8 7 4 4 2 2 3 6 5 8 11 7 6 6 9 8 5 7 2 2 7 5 3 4
9 8 8 7 7 8 8 8 9 10 14 12 4 5 4 4 4 3 7 9 12 16 13 6 11 8 3 3 4 4 5 6 8 10 11 11 10 9 7 8 8 6 8 11 9 3 3 6 6 7 11 8 10 9 9 9 9 9 8 8 9 9 2 11 8 6 3 4 1 2 5 7 3 9 11 7 8 6 7 5 3 7 5 3 7 8 6 4
8 7 7 7 7 7 7 8 10 12 14 11 6 9 7 4 4 2 3 6 11 16 13 7 7 6 3 3 2 3 6 7 9 10 11 11 11 9 8 9 9 7 8 10 8 4 4 7 7 9 9 7 8 8 8 8 9 8 8 8 6 8 4 8 6 5 5 3 2 4 6 8 5 12 11 7 8 6 9 8 5 4 6 5 5 6 6 7
7 6 6 6 6 7 7 8 11 13 14 10 9 12 9 8 8 7 5 6 8 14 13 8 7 7 8 7 4 7 8 7 9 10 11 11 12 10 9 9 9 10 9 9 8 5 5 7 6 4 7 7 7 9 9 8 8 6 6 7 6 7 6 2 4 7 7 4 1 2 7 6 6 11 8 9 10 9 10 8 6 6 5 5 3 2 3 4
5 5 5 6 6 7 8 9 10 12 16 14 15 18 15 13 11 9 6 8 5 11 12 9 9 10 8 4 6 12 10 6 9 10 13 11 11 9 10 9 9 10 9 11 12 9 9 11 7 6 6 7 9 9 10 8 6 7 9 8 8 10 9 6 4 3 7 6 5 3 8 2 7 7 6 8 11 12 10 9 10 8 5 3 1 2 2 3
5 6 6 8 8 9 10 9 9 12 14 13 18 21 20 15 10 8 5 7 4 9 10 10 8 7 5 4 7 10 8 6 8 11 14 13 12 8 8 7 6 8 10 13 14 9 10 12 9 8 8 7 9 8 8 7 6 8 8 8 11 9 6 8 7 8 6 3 6 7 7 3 7 6 6 6 10 13 12 11 10 7 5 2 3 2 1 5
6 7 9 10 11 14 12 6 8 13 12 12 17 16 15 12 6 6 5 5 5 8 7 9 7 4 6 7 9 8 8 5 3 8 14 15 15 8 7 6 4 9 9 9 9 7 8 9 6 7 9 8 8 9 8 7 8 6 4 9 13 8 5 8 9 9 7 2 6 10 5 3 5 6 6 6 10 14 15 14 8 3 2 6 4 3 3 4
7 9 11 13 16 18 9 0 5 13 11 9 12 9 7 5 4 3 5 4 6 8 7 8 5 6 6 8 12 7 4 7 7 6 10 13 12 5 6 7 6 8 7 5 5 2 5 10 8 6 7 7 8 9 6 5 7 6 8 12 13 11 8 11 11 7 7 7 8 11 5 1 1 5 8 7 10 13 16 15 10 6 3 3 2 5 4 4
8 11 13 15 20 16 3 6 3 8 6 3 3 4 3 2 2 2 5 3 5 6 7 6 3 4 6 10 14 5 5 10 7 7 9 11 10 6 7 9 8 9 8 6 6 1 3 8 9 8 7 5 8 9 4 5 8 9 10 12 11 12 12 12 9 7 7 8 6 5 3 2 1 6 8 7 8 11 14 13 10 8 6 4 4 6 6 5
10 14 15 17 21 12 4 7 7 8 3 5 1 2 1 2 3 4 5 2 5 4 4 6 5 6 7 10 12 5 4 5 2 7 11 10 12 9 6 7 9 10 9 8 9 5 2 5 6 4 6 6 9 9 8 6 8 11 13 12 10 10 11 10 8 7 6 6 6 6 8 5 2 5 6 5 5 10 12 10 8 8 7 5 6 6 7 6
12 14 15 19 19 8 6 6 7 6 5 5 4 2 3 4 4 6 5 3 6 6 5 5 7 9 10 10 8 7 10 5 2 7 9 8 12 10 7 6 8 9 7 7 10 10 7 6 5 4 7 7 10 11 10 8 8 10 11 10 11 9 8 7 5 5 5 4 6 9 11 5 3 2 3 5 5 9 12 8 7 9 7 4 3 5 7 6
13 14 16 20 15 5 6 4 3 4 5 6 5 4 5 5 4 6 3 3 5 7 8 7 9 11 12 12 9 8 10 8 6 8 7 6 10 9 8 7 5 6 6 7 9 10 10 9 6 5 6 7 10 8 8 9 8 7 7 6 8 8 6 6 2 3 4 4 6 10 10 5 6 3 4 8 7 9 10 9 8 8 7 4 3 7 7 6
13 14 17 22 14 8 9 4 9 7 7 8 6 5 5 4 7 7 1 3 5 7 8 9 11 11 13 13 10 9 9 9 8 8 8 7 7 7 8 8 5 5 6 7 8 10 11 11 8 6 8 7 8 8 8 9 9 7 6 5 6 6 5 3 2 3 4 5 7 7 7 4 7 5 7 11 13 12 8 6 8 6 6 5 5 8 6 7
13 14 18 23 16 11 11 8 10 8 10 10 7 5 5 5 6 4 4 4 5 8 9 10 12 12 13 13 9 9 8 7 9 9 9 9 7 9 11 11 10 7 4 7 6 6 7 8 8 6 6 8 5 7 6 5 5 5 5 5 5 5 5 5 5 5 4 6 8 5 3 4 6 6 10 13 12 11 7 6 8 7 6 4 5 8 6 8
12 14 16 19 17 14 12 10 8 8 12 10 6 5 7 7 3 1 3 4 6 10 10 10 12 12 12 11 8 10 8 7 10 9 9 10 7 7 10 11 12 8 5 7 6 4 4 3 8 5 3 5 6 7 5 8 8 7 6 5 3 5 6 5 4 4 4 4 5 4 1 3 4 7 11 10 8 9 8 8 10 8 6 6 7 9 8 9
11 12 12 13 17 17 12 10 7 7 10 7 5 6 7 7 3 3 4 5 6 9 11 11 12 11 11 9 9 10 7 3 10 10 8 8 6 6 8 10 11 8 7 6 3 5 9 3 6 4 2 2 8 5 4 8 8 6 7 4 1 7 7 5 5 6 8 5 3 2 2 6 7 10 11 8 6 8 9 10 10 8 7 8 8 9 8 7
8 10 9 12 16 14 11 9 6 7 8 6 6 6 5 5 3 2 4 6 6 8 12 11 10 9 8 6 8 10 6 2 7 9 6 7 8 7 5 3 6 7 7 6 3 3 7 3 6 3 5 8 9 6 6 9 6 5 7 3 5 10 9 7 6 6 7 6 3 3 5 8 9 8 7 7 7 8 11 12 10 8 7 8 8 7 6 6
8 8 8 12 16 14 11 9 8 8 8 5 6 6 4 6 5 5 4 7 7 9 10 8 8 7 7 6 6 9 7 4 6 6 6 7 6 3 1 3 1 2 4 6 4 2 4 4 3 3 10 7 4 7 9 10 8 7 7 6 9 8 6 5 4 4 5 5 2 5 8 5 3 3 3 6 7 7 10 12 10 8 7 7 7 3 3 4
7 9 9 11 14 12 11 10 9 8 6 5 8 10 7 4 1 4 2 5 7 8 8 6 6 7 7 5 6 9 9 6 7 6 6 6 3 2 1 2 2 3 5 7 5 0 3 5 3 3 7 3 5 5 9 9 9 7 9 8 6 5 4 3 4 5 5 5 2 7 11 6 5 4 4 5 7 7 9 9 8 9 7 5 3 1 2 1
7 8 8 9 12 12 11 10 8 7 6 6 7 8 5 0 2 1 1 2 6 9 9 7 7 6 9 5 6 10 10 6 7 6 6 4 3 2 3 2 2 4 3 6 6 3 2 5 2 3 4 4 1 5 4 3 7 8 7 6 4 4 4 2 2 4 6 5 3 3 7 3 1 2 4 6 8 8 9 8 6 7 5 4 2 2 2 2
8 6 3 11 14 12 11 9 7 6 6 7 7 6 3 3 4 3 1 4 3 3 5 1 7 5 8 8 8 7 8 8 6 5 4 5 4 3 2 1 2 1 1 4 7 4 2 3 3 3 3 4 5 4 3 5 2 4 5 5 4 4 4 3 1 1 6 5 2 2 0 3 3 2 2 4 7 9 9 8 6 6 6 5 4 5 5 6
9 6 4 13 15 13 11 7 6 6 6 9 9 5 2 2 4 6 3 6 5 1 7 7 3 6 5 6 7 8 7 5 4 6 5 6 5 4 3 2 3 4 2 4 6 4 2 1 3 5 2 1 4 4 6 8 8 6 6 6 7 6 6 6 3 1 5 5 4 5 2 4 3 2 2 2 5 7 7 6 6 5 6 6 6 7 7 7
8 4 7 15 17 14 9 5 6 8 6 6 3 3 0 2 3 6 5 4 4 1 3 5 2 4 3 4 2 5 7 4 6 6 3 3 2 3 4 3 3 5 6 6 3 3 3 3 4 5 4 4 7 7 6 8 10 9 7 6 7 6 5 5 5 4 6 6 6 7 2 4 2 0 1 2 5 8 6 5 6 6 6 6 6 7 7 7
6 1 10 15 16 12 7 5 7 7 4 2 2 5 3 2 4 5 7 5 2 1 2 1 5 4 1 3 6 0 5 5 5 2 2 2 2 7 4 3 3 5 6 6 4 5 3 3 5 5 5 9 13 12 9 10 10 8 7 7 6 4 5 6 7 7 6 6 7 6 2 4 4 2 1 3 5 7 5 5 5 5 7 6 6 7 8 6
6 2 8 11 13 11 7 5 6 4 3 4 3 3 0 2 3 3 3 0 1 0 1 2 2 4 3 1 5 3 0 2 2 4 4 1 4 5 2 3 4 6 2 3 4 3 2 1 3 4 4 5 8 8 6 8 8 7 9 10 7 7 8 7 6 6 6 7 9 6 1 4 6 5 3 2 4 4 3 4 5 5 6 5 5 8 8 6
6 3 7 8 11 9 7 6 7 3 5 5 4 5 2 3 3 2 4 3 3 3 2 2 2 3 2 1 3 3 1 3 4 2 4 3 3 5 2 3 6 6 8 9 6 4 4 3 3 3 1 2 5 4 3 3 2 5 10 11 10 11 11 7 5 5 5 7 9 6 3 6 10 11 8 5 3 1 1 3 3 3 4 4 4 6 7 8
6 3 6 6 7 7 8 8 10 7 5 6 5 6 4 4 4 5 4 3 4 4 2 1 2 3 1 1 2 1 0 2 2 2 4 4 2 5 4 2 6 3 9 8 6 4 5 6 6 6 5 5 7 5 8 8 6 8 12 13 12 13 12 9 6 5 5 7 6 2 6 8 11 12 11 10 9 7 3 3 4 3 3 2 2 4 6 7
5 2 6 6 5 6 7 8 9 7 5 4 3 3 4 5 5 1 4 3 2 3 2 2 3 2 1 2 2 1 1 2 2 3 3 4 2 4 4 4 5 2 4 4 5 3 5 7 8 10 9 10 11 9 10 11 10 11 13 13 13 12 12 11 8 7 7 7 3 4 6 5 6 8 8 8 9 8 6 6 6 5 3 3 2 4 5 7
5 3 5 5 4 6 7 5 4 4 5 3 1 2 4 5 5 3 0 1 1 2 2 1 2 3 4 4 3 1 3 2 1 3 3 3 4 3 2 4 4 7 5 7 7 4 5 7 8 11 11 11 13 13 11 11 12 13 13 14 14 13 12 11 10 10 9 8 5 3 5 2 2 5 6 4 4 7 7 6 6 5 2 2 2 3 4 7
4 3 3 4 5 5 5 3 3 3 5 3 2 4 5 4 4 3 2 1 1 2 4 1 2 4 6 6 5 3 3 3 3 4 4 3 5 6 4 4 4 5 3 7 6 1 2 5 8 12 13 14 14 15 15 14 14 15 14 14 13 13 14 12 8 10 12 11 10 5 3 5 4 5 7 6 6 6 6 7 6 4 2 2 2 3 5 7
3 4 1 3 6 4 3 4 4 4 4 1 2 3 2 2 3 3 2 4 2 1 3 2 3 4 5 5 5 5 8 6 6 6 7 6 5 5 5 5 4 3 3 5 4 2 1 3 6 9 11 12 14 14 14 14 15 15 16 14 11 13 16 13 6 6 9 9 9 8 4 4 5 7 8 7 7 6 6 7 5 3 2 2 3 5 6 6
6 6 6 5 4 2 3 5 5 3 4 3 3 3 2 1 2 2 3 4 5 4 5 7 6 4 4 2 2 6 8 6 8 7 7 7 7 6 5 5 7 7 7 6 5 4 5 5 6 8 8 10 12 12 13 15 15 14 14 12 8 9 11 9 5 5 7 8 9 9 5 3 5 5 6 5 5 6 6 5 3 2 3 3 4 6 6 5
10 8 8 6 2 2 4 5 4 3 2 1 1 2 3 2 2 0 1 1 2 4 7 8 7 6 6 3 6 6 7 7 8 8 7 8 9 9 8 9 10 9 8 7 6 6 7 6 6 7 7 9 12 14 14 15 13 9 7 7 6 6 8 7 7 7 8 8 7 5 2 3 4 3 4 5 6 7 6 5 3 3 3 2 2 3 3 4
Wind_Direction
333 330 329 322 315 307 302 301 302 308 312 320 330 329 323 323 326 327 329 331 330 331 329 328 326 324 325 325 328 327 321 316 306 281 249 252 261 282 291 280 275 278 287 290 288 288 288 296 287 244 254 258 250 323 356 298 305 306 16 45 37 44 43 33 40 46 63 64 68 61 39 65 82 95 114 133 115 103 110 124 114 115 127 130 148 160 158 151
327 326 324 321 316 308 306 301 299 300 302 309 315 323 321 318 323 321 325 327 327 330 327 326 325 324 325 326 331 330 325 315 289 269 253 250 259 272 277 271 270 274 279 283 288 296 307 324 330 300 275 259 232 329 348 312 329 30 51 60 56 56 58 51 50 51 66 70 73 72 47 51 72 110 150 136 123 128 127 133 126 131 136 140 153 153 154 155
321 321 319 317 315 309 306 301 299 298 298 301 304 314 314 315 318 316 321 324 325 327 323 324 323 324 326 327 332 333 329 308 279 258 235 231 246 259 264 261 263 270 270 277 288 297 306 306 300 296 292 307 57 309 352 347 334 36 40 62 89 90 83 75 68 52 60 70 61 61 60 56 62 103 125 112 145 153 141 145 147 147 150 157 161 156 157 161
316 315 313 313 311 307 303 302 302 299 299 297 299 302 302 310 311 311 316 319 323 323 321 322 322 323 325 326 330 336 325 288 268 127 155 199 232 243 247 250 257 270 272 275 282 287 289 286 282 282 287 292 88 309 35 27 350 63 38 43 93 99 93 91 86 59 55 57 52 53 49 61 45 14 89 130 170 139 145 162 161 156 161 163 159 159 160 166
313 309 308 307 305 303 299 300 300 299 300 297 299 296 294 301 303 308 311 315 320 319 320 320 323 323 322 324 327 331 312 269 107 95 122 178 222 226 228 238 254 267 274 278 284 285 280 277 273 265 270 282 120 58 58 40 305 87 53 38 75 90 91 87 80 70 76 60 56 52 20 64 56 328 41 8 47 100 151 158 162 170 169 160 153 162 162 168
309 307 304 302 299 298 296 296 296 296 297 296 298 293 290 291 294 302 305 313 315 316 319 320 324 322 322 325 322 313 270 273 83 95 117 180 218 222 219 225 251 266 275 283 285 283 282 283 288 283 291 339 27 42 52 346 322 85 84 48 39 75 88 85 89 140 68 51 49 39 5 57 55 303 61 349 42 90 126 139 153 171 170 157 152 165 165 166
306 305 301 300 295 293 292 291 292 292 292 293 294 291 288 284 286 295 301 309 311 315 318 319 325 322 327 330 316 250 248 272 104 115 106 206 222 218 212 220 248 273 277 282 288 296 306 301 326 1 316 324 344 63 52 303 349 71 89 58 29 72 84 86 102 111 59 57 51 31 20 42 345 344 70 300 65 83 104 119 135 157 162 154 153 166 165 165
304 302 299 297 292 291 289 288 288 288 288 286 288 286 281 278 280 287 296 304 308 314 316 320 325 326 336 338 312 247 248 212 112 139 223 213 220 204 201 223 244 267 274 280 292 312 325 322 358 348 311 357 317 44 78 276 355 65 56 79 83 78 78 88 112 106 93 84 51 21 52 44 333 337 340 280 79 81 90 96 117 140 147 143 154 161 160 163
302 299 297 293 289 289 286 285 284 284 283 282 282 278 272 271 274 281 292 299 305 312 316 319 322 329 338 328 295 278 266 84 109 152 187 187 201 202 201 225 228 243 269 281 285 296 319 345 5 329 332 359 304 336 351 302 20 48 26 62 55 66 68 45 109 111 109 110 86 45 67 21 320 334 319 64 71 88 105 103 100 98 109 114 144 154 161 165
301 296 293 292 288 285 283 282 282 281 279 277 275 267 264 264 268 277 286 293 301 309 316 316 322 332 331 302 281 284 74 76 118 139 153 171 181 202 216 232 234 245 268 281 280 305 344 347 341 327 327 306 267 23 334 354 7 347 26 73 64 90 100 31 40 96 98 102 86 26 68 323 316 330 310 71 59 60 103 100 93 102 137 119 169 170 160 154
300 294 291 290 285 282 280 280 279 279 277 273 268 259 259 260 265 275 280 288 299 308 315 313 322 334 322 294 279 296 53 43 144 133 169 181 188 207 213 228 250 258 270 279 276 332 351 328 327 316 321 313 309 301 55 37 270 296 10 207 107 73 100 62 16 83 93 108 100 53 352 289 284 279 299 87 87 36 74 89 101 154 145 125 200 173 90 114
296 293 289 283 280 278 276 277 275 275 274 266 258 251 252 256 261 270 276 285 297 307 311 309 325 337 318 283 256 271 8 332 179 145 184 188 203 210 211 225 245 260 277 289 300 8 345 320 322 305 324 330 307 306 69 41 270 302 291 251 150 158 116 84 44 84 90 123 129 172 255 290 231 240 306 112 134 151 78 100 128 173 109 121 215 145 100 141
294 290 285 279 275 273 272 272 270 268 265 258 254 247 248 255 259 264 273 283 294 306 307 307 322 326 303 283 250 194 327 308 177 194 200 196 207 207 220 237 243 260 279 295 315 348 327 315 315 309 318 303 306 337 333 246 280 269 233 260 213 184 129 121 142 108 132 105 137 196 300 299 220 207 299 111 132 119 84 112 145 156 106 136 200 161 135 146
291 288 283 277 272 269 269 269 266 261 256 256 250 243 248 253 254 259 270 282 293 300 299 302 312 313 276 272 299 149 248 274 221 215 203 196 210 207 212 231 238 251 266 282 298 309 310 314 305 296 290 284 307 322 264 227 251 257 228 237 234 199 147 165 150 118 146 118 161 231 304 312 225 196 216 97 118 124 143 148 133 130 124 152 188 163 150 89
288 284 277 273 270 267 266 263 261 255 251 252 244 244 249 246 251 259 272 284 292 295 298 301 285 258 269 259 223 182 228 234 220 212 198 195 208 207 202 218 230 241 257 268 280 294 302 303 294 289 298 302 292 271 270 252 238 252 270 268 230 187 138 141 131 139 163 151 181 230 299 344 214 205 173 133 139 142 159 153 130 154 134 154 220 162 145 113
285 279 273 269 267 262 260 257 254 251 247 243 237 238 236 238 249 258 276 288 294 292 291 295 240 216 278 288 147 187 216 216 212 197 191 200 211 209 195 205 226 234 249 261 272 283 286 288 285 282 292 293 272 265 279 301 272 244 271 294 329 20 125 133 135 151 144 163 170 208 284 331 258 210 150 160 159 133 137 120 132 167 147 170 238 175 128 117
284 277 272 266 261 257 254 250 246 242 237 227 220 222 223 235 249 258 283 290 298 295 273 283 279 244 264 285 217 227 213 198 188 177 184 204 228 228 186 190 225 231 241 253 262 270 269 270 270 265 260 250 262 275 274 289 287 280 269 291 339 4 310 142 124 146 168 196 193 203 249 310 300 163 138 168 125 119 136 151 143 162 181 187 226 104 110 120
285 277 271 262 258 253 246 240 233 224 211 197 192 191 208 226 243 259 275 286 310 296 262 261 281 284 247 243 241 216 194 168 167 181 187 198 238 261 180 196 224 228 241 247 245 250 252 249 258 270 261 247 254 258 270 349 338 337 350 323 341 332 290 154 121 136 165 183 276 249 240 304 287 134 131 130 62 115 145 164 154 166 189 182 175 109 118 134
281 274 266 257 252 244 233 225 213 196 171 160 157 159 196 234 254 257 244 244 212 233 270 202 206 273 129 199 206 135 132 136 170 191 186 189 208 223 209 216 219 226 245 239 211 214 237 248 245 262 262 269 321 331 332 4 351 332 334 314 295 287 300 73 84 68 66 198 274 292 322 334 335 124 130 128 91 121 143 155 171 162 178 165 148 132 130 143
275 267 261 251 242 230 219 211 193 176 162 145 140 190 197 189 201 209 209 226 226 247 291 163 187 239 80 132 114 95 105 142 195 205 192 187 195 211 219 224 221 225 244 247 222 194 214 255 256 282 285 297 357 355 331 339 332 316 307 289 282 280 15 80 76 82 60 305 262 321 339 319 311 130 138 144 122 109 128 155 163 124 108 107 125 144 171 177
270 261 254 240 228 219 211 202 182 175 167 150 164 240 227 188 191 171 174 207 227 243 270 212 202 262 332 73 93 136 183 190 208 212 191 180 195 208 194 210 229 216 227 251 259 211 198 262 271 274 278 312 6 345 311 314 310 297 288 288 292 297 17 91 90 113 104 310 269 23 322 292 293 135 146 144 125 101 92 105 85 109 127 113 122 150 180 196
264 254 247 229 222 215 204 194 179 177 172 164 207 239 261 318 350 343 199 213 215 222 249 252 243 269 254 279 316 218 211 179 194 201 177 174 196 204 172 192 233 228 218 235 257 257 228 254 255 254 282 345 351 314 300 293 286 282 281 283 277 292 334 89 105 132 124 293 297 39 325 302 54 110 133 119 110 90 75 74 28 62 118 121 128 153 172 186
257 243 235 217 209 198 186 183 177 179 180 190 228 232 264 329 347 328 288 262 205 199 227 234 232 229 205 236 235 215 223 184 188 186 168 185 202 208 196 193 223 238 235 225 231 252 253 253 251 275 326 342 308 298 304 284 268 262 261 280 290 293 314 45 140 161 163 232 279 26 296 283 101 112 111 88 93 84 74 80 56 42 81 112 132 161 198 198
243 223 215 194 184 175 170 167 170 189 194 210 239 241 266 307 320 323 304 273 204 179 216 215 217 228 210 221 189 201 222 188 191 177 162 200 212 207 220 216 223 234 246 248 242 242 258 275 297 319 306 297 299 301 294 279 264 261 245 249 269 267 288 339 9 212 201 192 164 237 289 293 129 128 101 88 95 95 88 79 71 51 32 66 148 221 275 4
216 205 191 175 169 159 155 160 182 202 197 215 245 247 259 279 301 328 312 272 198 164 206 204 214 231 182 167 181 206 230 194 201 178 161 204 216 197 221 233 245 233 229 250 258 250 250 263 276 291 288 282 291 287 279 282 279 273 256 261 278 279 306 337 329 291 268 178 164 238 295 59 119 123 125 129 105 103 102 81 69 49 8 315 235 221 31 40
197 191 176 169 165 153 148 161 194 196 193 220 242 244 247 256 302 338 296 261 173 151 181 185 189 178 145 171 182 213 240 199 155 150 160 205 221 221 235 216 228 250 243 252 269 263 255 265 280 302 310 302 290 276 265 269 269 277 342 328 322 343 344 307 294 287 295 301 205 230 257 104 131 117 111 114 101 104 105 97 97 96 323 262 227 110 87 76
189 180 172 171 163 152 148 307 182 187 197 220 232 231 224 244 350 345 261 249 171 159 167 164 164 174 170 178 184 206 215 141 115 139 170 200 216 243 253 223 218 247 267 287 282 261 244 268 277 271 285 293 282 268 258 271 271 293 8 353 336 341 316 298 308 304 297 294 239 223 223 95 133 119 102 92 101 108 106 107 122 132 148 229 148 101 108 113
185 173 174 174 164 157 175 323 283 216 209 124 178 216 198 259 332 219 250 250 147 154 166 144 117 184 175 179 201 218 100 135 156 178 174 182 199 212 225 246 258 233 228 242 254 147 158 247 258 240 245 255 258 271 333 350 284 290 342 351 333 319 301 296 306 293 283 292 281 254 261 328 102 141 121 105 114 111 100 100 107 119 139 157 122 100 99 98
177 172 177 173 169 176 270 304 293 279 313 47 8 254 198 230 227 218 261 252 153 160 160 138 147 192 177 178 209 226 150 184 216 158 159 173 204 229 244 263 280 261 243 237 246 265 307 314 329 284 252 242 258 295 351 345 296 303 324 325 305 289 285 282 273 272 284 297 309 300 273 270 115 137 127 108 112 100 94 96 110 128 143 146 142 128 106 100
173 174 177 170 171 199 271 255 251 281 334 348 316 282 210 210 211 224 244 209 166 162 148 153 174 185 181 176 192 210 195 189 87 150 164 179 201 229 269 268 279 282 268 251 254 265 277 300 337 295 270 287 300 316 329 305 294 306 305 297 287 271 263 266 265 288 300 293 289 276 270 290 57 96 105 106 119 113 117 127 129 133 129 111 132 114 88 95
174 175 175 172 172 207 238 229 271 315 336 327 312 268 225 204 220 247 243 162 165 154 151 169 172 169 181 186 182 198 193 160 149 179 181 189 192 203 238 237 247 269 254 245 243 240 239 234 235 236 239 276 288 281 279 266 252 273 284 283 289 279 252 237 245 302 286 278 289 288 297 348 60 43 59 83 81 98 122 134 129 134 129 103 74 68 55 63
176 176 179 183 188 207 217 293 345 337 330 320 295 248 218 195 224 244 202 160 176 165 169 171 166 167 184 196 184 184 193 165 169 193 188 194 188 190 225 220 201 225 240 241 224 214 225 225 221 210 191 220 268 269 257 245 226 232 264 273 274 282 279 246 234 270 275 273 276 290 317 35 89 80 85 85 66 62 79 113 121 119 104 90 77 74 46 39
177 181 189 195 205 214 221 276 311 320 329 312 274 237 226 227 237 231 175 181 164 162 169 160 165 172 184 198 180 173 199 170 167 196 198 198 194 194 217 225 225 238 255 261 246 210 207 196 202 220 181 176 237 275 265 266 260 237 246 268 268 278 291 288 268 259 270 273 268 283 349 90 111 100 92 88 79 79 80 87 94 83 67 53 61 77 61 49
180 189 195 205 225 236 234 255 278 315 323 298 256 232 232 238 248 185 174 158 138 157 160 154 166 173 190 205 168 168 205 171 165 194 198 199 209 204 209 216 230 258 281 277 287 283 273 174 178 210 121 145 225 268 302 310 292 267 254 243 260 307 294 285 296 290 291 294 281 286 340 97 102 95 89 87 92 104 111 102 92 84 72 52 39 49 48 49
180 192 201 221 240 240 239 254 270 297 300 281 252 236 235 246 232 173 158 111 122 155 148 153 168 172 200 207 157 176 227 181 173 196 206 210 210 210 221 207 199 223 259 270 324 311 299 337 133 151 82 244 261 288 328 289 270 286 292 242 236 330 316 303 319 315 305 304 302 306 92 101 95 93 94 100 105 108 116 108 89 72 67 65 47 39 35 40
169 185 211 235 241 237 236 248 254 258 265 264 257 243 241 281 323 101 142 132 144 156 143 155 175 177 197 185 149 186 221 225 195 196 202 226 219 208 242 234 165 188 238 271 330 308 290 344 90 135 245 246 266 304 307 282 287 316 297 314 356 326 323 329 315 302 297 286 299 7 82 108 106 94 88 103 117 120 112 96 77 56 49 61 58 40 20 30
162 178 219 234 231 231 224 218 217 231 249 261 264 267 262 270 324 30 119 149 149 151 150 166 183 191 196 165 156 188 187 179 199 198 198 215 220 195 283 341 60 195 270 291 298 308 302 302 119 214 257 233 224 286 282 276 295 297 281 338 354 309 288 309 298 298 303 293 335 80 98 98 88 78 66 88 94 92 90 89 89 77 52 50 58 53 16 16
194 206 235 235 218 211 197 194 209 228 248 258 257 268 272 256 332 25 72 142 138 153 181 184 177 215 222 177 157 176 184 180 174 198 216 183 143 24 273 239 186 210 296 302 277 332 337 284 182 183 270 231 158 248 267 246 241 265 295 323 328 284 283 304 305 316 309 296 324 97 93 45 15 30 24 52 47 38 55 62 74 83 75 60 49 56 104 29
244 238 237 210 189 182 176 186 213 231 244 254 257 263 270 103 102 52 357 190 159 170 198 181 151 215 244 212 155 164 194 200 160 199 236 162 127 313 272 249 175 175 249 277 278 314 322 283 237 167 266 316 215 231 260 237 209 225 275 293 264 273 311 315 309 322 314 309 316 89 87 58 20 15 357 13 16 24 56 65 58 67 82 87 46 2 45 26
244 251 181 159 163 163 168 186 219 230 235 249 257 249 234 106 111 135 220 258 234 197 253 220 136 188 248 219 165 157 207 210 176 205 212 142 161 206 172 246 267 250 171 245 270 289 257 278 308 229 236 318 304 270 323 349 309 248 284 309 300 310 331 326 18 333 304 306 301 297 65 136 140 88 29 28 22 27 54 78 75 58 67 76 54 29 27 13
235 252 140 150 155 155 169 193 224 227 239 251 246 235 270 32 111 132 176 275 296 315 307 316 171 182 254 242 174 163 200 216 225 222 165 148 200 194 85 30 266 276 300 229 241 266 260 294 310 288 277 269 288 325 343 330 325 316 314 323 317 323 331 315 320 333 296 301 300 296 312 100 79 42 55 63 73 72 67 81 90 77 74 75 64 55 40 17
249 256 141 154 156 158 182 219 233 226 241 266 252 115 23 320 107 126 154 252 299 234 266 316 312 191 211 301 300 167 177 198 246 243 148 145 202 87 62 353 274 275 285 264 263 16 359 317 290 288 313 327 325 343 346 331 324 302 289 298 302 315 329 310 316 329 308 302 299 295 317 103 104 49 25 11 65 83 82 81 88 89 82 74 71 68 55 30
252 188 136 154 162 173 209 240 239 232 215 220 101 105 177 185 130 149 173 207 277 274 224 17 353 337 71 351 334 354 174 202 231 283 57 151 90 63 44 327 285 259 268 286 331 22 5 314 296 291 318 332 329 333 341 348 344 321 298 291 288 321 332 309 315 323 312 312 312 308 356 114 138 125 40 12 48 68 72 58 56 73 80 73 75 79 69 42
253 175 141 162 173 188 232 247 244 238 158 179 154 125 210 73 108 161 152 137 321 57 91 87 360 342 61 15 320 357 73 276 322 356 342 318 91 79 27 340 289 260 271 8 356 356 331 300 298 307 338 332 312 315 333 349 351 331 303 295 308 333 317 301 311 312 307 327 327 318 4 118 133 131 116 66 58 62 62 57 48 54 67 64 70 86 91 67
267 192 149 168 179 198 246 265 270 259 143 173 167 132 101 55 44 45 76 45 6 59 76 58 338 323 82 162 301 354 348 305 340 325 271 284 101 117 68 341 283 304 24 29 357 324 294 277 274 282 304 294 287 288 289 299 310 279 281 295 314 317 308 307 315 306 312 335 331 332 62 115 133 137 141 140 142 227 300 92 101 75 71 65 56 81 101 107
276 202 156 167 183 210 241 250 259 249 165 170 173 144 134 114 74 22 25 25 11 28 60 65 307 299 67 177 279 339 228 260 310 279 236 253 179 116 78 305 269 337 31 8 320 295 285 284 284 273 252 268 285 267 251 252 247 261 281 296 299 299 307 310 302 303 319 323 322 32 103 131 151 154 157 162 168 188 198 146 133 96 80 96 89 89 88 99
277 233 168 172 185 213 237 237 233 218 162 161 185 157 146 135 126 38 335 352 18 8 15 360 323 328 46 331 281 256 310 256 254 298 281 276 289 111 125 257 261 118 72 302 266 247 279 274 270 274 270 275 282 275 267 270 270 272 280 287 287 292 303 300 299 314 315 310 309 141 140 151 165 165 168 168 166 170 167 150 136 131 171 213 143 103 82 66
253 245 174 167 191 209 227 245 233 176 149 149 211 219 189 163 153 160 29 52 152 309 310 289 343 15 38 4 338 293 300 288 283 326 308 291 322 353 177 231 214 151 163 258 246 216 274 278 282 289 286 285 288 289 287 281 277 279 279 282 287 292 295 292 299 312 308 306 306 191 156 97 61 132 145 151 145 141 137 129 122 124 155 310 22 69 79 70
266 270 174 172 226 232 211 231 258 191 163 160 195 219 212 186 153 111 42 339 151 348 320 283 82 27 27 14 339 336 11 346 329 346 347 329 322 319 297 263 232 162 183 274 269 223 301 292 300 301 295 293 292 291 293 287 282 284 279 276 284 292 294 290 295 311 310 307 311 317 72 61 40 74 98 93 75 78 82 72 60 55 37 4 35 81 66 59
287 313 327 201 234 254 188 194 232 199 146 132 209 204 222 199 148 116 46 348 15 67 308 317 63 22 10 8 340 17 46 14 338 354 355 330 310 308 312 315 318 324 304 298 308 5 354 275 289 293 289 286 280 279 285 283 279 281 279 274 273 281 288 286 289 321 321 315 319 325 347 53 53 56 73 82 75 70 68 63 54 40 36 38 59 77 66 42
308 298 285 254 233 246 197 194 222 194 149 180 217 194 187 153 101 103 80 20 3 13 0 6 22 347 299 291 21 39 40 1 331 340 332 307 302 312 317 320 321 313 300 306 317 301 285 286 293 289 285 287 285 281 283 281 277 280 284 282 272 278 297 307 318 350 349 333 328 327 337 62 82 78 83 85 84 88 80 73 80 52 35 41 36 43 41 23
340 310 288 275 222 204 229 214 204 186 145 142 196 178 191 159 76 304 203 54 34 29 11 360 358 322 300 31 60 32 4 341 324 320 311 295 288 288 284 282 286 287 285 294 301 293 292 294 293 292 290 291 294 296 299 297 290 288 305 328 342 341 346 346 344 10 18 356 348 360 47 102 111 99 85 72 69 74 67 63 76 49 23 20 20 36 32 15